Regional Weather Roundup
Issued by NWS Sterling, VA

Home | Current Version | Previous Version | Text Only | Print | Product List | Glossary Off
Versions: 1 2 3 4 5 6 7 8 9 10 11 12 13 14 15 16 17 18 19 20 21 22 23 24 25 26 27 28

000
ASUS41 KLWX 261510
RWRLWX

REGIONAL WEATHER ROUNDUP
NATIONAL WEATHER SERVICE BALTIMORE MD/WASHINGTON DC
1100 AM EDT TUE JUL 26 2016

Note: "FAIR" indicates few or no clouds below 12,000 feet
with no significant weather and/or obstructions to visibility.
 TC=TEMPERATURE CELSIUS

 * =Non NWS site. Station does not report precipitation (e.g. rain,
    snow, etc.), thunder, or fog.

DCZ001-MDZ009-015-VAZ040>042-051-053>054-261600-
WASHINGTON METRO

CITY           SKY/WX    TMP DP  RH WIND       PRES   REMARKS
WASHINGTON NAT CLOUDY    91  73  55 N7        29.97S HX  99
DULLES         PTSUNNY   87  70  56 NW9       29.98S HX  92
ANDREWS AFB    PTSUNNY   87  73  63 N6        29.96S HX  94
FT BELVOIR     FAIR      89  72  57 N7        29.97R HX  96
QUANTICO       PTSUNNY   90  72  55 NW7       29.97  HX  97
COLLEGE PARK*  FAIR      88  72  58 NW5       29.96S HX  94
LEESBURG*      FAIR      88  75  66 NW12G18   30.00S HX  97
MANASSAS*      MOSUNNY   90  72  55 N7        29.98S HX  96
GAITHERSBURG*  CLOUDY    84  72  65 NW3       30.02S

$$

MDZ006>007-011-014-261600-
BALTIMORE METRO

CITY           SKY/WX    TMP DP  RH WIND       PRES   REMARKS
BWI AIRPORT    PTSUNNY   90  70  51 W7        29.95S HX  95
MD SCIENCE CTR   N/A     90  66  45 MISG      29.95S HX  92
MARTIN STATE   PTSUNNY   90  75  62 CALM      29.96F HX 100
ANNAPOLIS      MOSUNNY   88  76  67 CALM      29.95S HX  99
FORT MEADE*    MOSUNNY   86  77  74 W3        29.99R HX  97

$$

MDZ012-015-019>023-261600-
MARYLAND EASTERN SHORE

CITY           SKY/WX    TMP DP  RH WIND       PRES   REMARKS
OCEAN CITY     SUNNY     86  76  71 E7        29.95S HX  96
SALISBURY      MOSUNNY   86  75  69 NE8       29.95S HX  95
BAY BRIDGE AP* MOSUNNY   84  75  74 NW5       29.96S HX  92
CAMBRIDGE*     MOSUNNY   84  73  70 N6        29.95S HX  91
EASTON*        PTSUNNY   88  79  74 NE6       29.99S HX 102

$$

MDZ017>025-261600-
SOUTHERN MARYLAND

CITY           SKY/WX    TMP DP  RH WIND       PRES   REMARKS
PATUXENT RIVER PTSUNNY   88  75  65 N7        29.96R HX  97
ST INIGOES     MOSUNNY   89  77  67 VRB3      29.95S HX 101
LEONARDTOWN*   NOT AVBL

$$

MDZ003>005-261600-
NORTH CENTRAL MARYLAND

CITY           SKY/WX    TMP DP  RH WIND       PRES   REMARKS
FREDERICK*     SUNNY     90  70  51 CALM      30.00F HX  95
HAGERSTOWN APT PTSUNNY   87  69  54 VRB3      29.99F HX  91

$$

MDZ501>502-261600-
WESTERN MARYLAND

CITY           SKY/WX    TMP DP  RH WIND       PRES   REMARKS
OAKLAND*       CLOUDY    70  64  83 W3        30.15S
CUMBERLAND*    CLOUDY    84  70  61 N5        30.06S

$$

VAZ025>031-261600-
SHENANDOAH VALLEY

CITY           SKY/WX    TMP DP  RH WIND       PRES   REMARKS
WINCHESTER*    FAIR      84  72  65 W7        30.01S
FRONT ROYAL*   FAIR      86  72  62 CALM      30.00S HX  92
LURAY*         FAIR      86  73  66 CALM      30.02S HX  93
NEW MARKET*    FAIR     N/A N/A N/A CALM      30.01S
STAUNTON*      FAIR      85  72  65 N5        30.06S HX  91
WAYNESBORO*    FAIR      86  70  58 NW3       30.06S HX  90

$$

WVZ021-048>050-054>055-261600-
EASTERN WEST VIRGINIA PANHANDLE

CITY           SKY/WX    TMP DP  RH WIND       PRES   REMARKS
MARTINSBURG    FAIR      87  68  52 VRB5      30.00R HX  90
PETERSBURG*    PTSUNNY   87  70  56 CALM      30.03S HX  92

$$

VAZ036>039-050-261600-
CENTRAL FOOTHILLS

CITY           SKY/WX    TMP DP  RH WIND       PRES   REMARKS
CHARLOTTESVILL FAIR      92  73  53 NW6       29.99S HX 100
CULPEPER*      FAIR      88  76  67 CALM      29.99S HX  98
ORANGE*          N/A     90  73  58 CALM      30.01S HX  98
GORDONSVILLE*  FAIR      91  75  59 E3        29.99S HX 100
WARRENTON*     FAIR      90  69  48 N7        29.99S HX  94

$$

VAZ055>057-261600-
NORTH AND CENTRAL PIEDMONT

CITY           SKY/WX    TMP DP  RH WIND       PRES   REMARKS
FREDERICKSBRG* FAIR      90  74  59 N7        29.96S HX  99
STAFFORD*      FAIR      90  71  53 N7        30.02R HX  96

$$

NCZ024-NYZ072-PAZ021-071-VAZ022-071-261600-
OTHER REGIONAL OBSERVATIONS

CITY           SKY/WX    TMP DP  RH WIND       PRES   REMARKS
NEW YORK CITY  SUNNY     83  67  58 VRB7      29.94S
PHILADELPHIA   MOSUNNY   86  68  54 NW8       29.94F
PITTSBURGH     PTSUNNY   81  66  60 N5        30.05S
ROANOKE        FAIR      87  71  58 N6        30.07S HX  93
RICHMOND       PTSUNNY   90  75  61 NE8       29.97S HX 100
RALEIGH        PTSUNNY   88  74  63 SW7       30.01F HX  96

$$

ANZ530>537-261600-
MARINE OBSERVATIONS

STATION/POSITION TIME  TEMP    WIND        PRES
                       AIR SEA DIR/SP/G
                 (UTC) (F)     (DEG/KT/KT) (MB)
THOMAS PT LIGHT  1500   82 83   30/  3/  4 1015.9R
BALT KEY BRIDGE  1442   85     110/  2/  3 1014.2F
COVE POINT       1442   82      10/  5/  8 1015.2R
LEWISETTA        1442   84 85  350/  5/  7 1014.2R
SOLOMONS ISLAND  1442   85 84   70/  3/  4   N/A
PINEY POINT      1442          330/  7/  7   N/A

$$





USA.gov is the U.S. government's official web portal to all federal, state and local government web resources and services.